2023/01/25 00:00:00,76.4,-5.9
2023/01/25 00:10:00,76.8,-6.1
2023/01/25 00:20:00,77.1,-5.9
2023/01/25 00:30:00,77.1,-5.9
2023/01/25 00:40:00,76.9,-6.2
2023/01/25 00:50:00,77.1,-6.3
2023/01/25 01:00:00,77.6,-5.9
2023/01/25 01:10:00,78.5,-6.5
2023/01/25 01:20:00,78.9,-6.3
2023/01/25 01:30:00,79.0,-6.2
2023/01/25 01:40:00,78.8,-6.3
2023/01/25 01:50:00,78.5,-6.3
2023/01/25 02:00:00,78.5,-6.2
2023/01/25 02:10:00,78.4,-6.2
2023/01/25 02:20:00,78.4,-6.0
2023/01/25 02:30:00,78.4,-6.6
2023/01/25 02:40:00,78.6,-6.1
2023/01/25 02:50:00,78.6,-6.1
2023/01/25 03:00:00,78.5,-6.2
2023/01/25 03:10:00,78.6,-6.3
2023/01/25 03:20:00,78.5,-6.3
2023/01/25 03:30:00,78.5,-6.3
2023/01/25 03:40:00,78.4,-6.4
2023/01/25 03:50:00,78.3,-6.4
2023/01/25 04:00:00,78.2,-6.5
2023/01/25 04:10:00,78.0,-6.3
2023/01/25 04:20:00,77.9,-5.4
2023/01/25 04:30:00,77.8,-6.2
2023/01/25 04:40:00,77.6,-6.2
2023/01/25 04:50:00,77.6,-6.4
2023/01/25 05:00:00,77.6,-6.3
2023/01/25 05:10:00,77.3,-6.1
2023/01/25 05:20:00,77.5,-6.3
2023/01/25 05:30:00,77.3,-6.2
2023/01/25 05:40:00,77.3,-6.1
2023/01/25 05:50:00,77.2,-5.7
2023/01/25 06:00:00,77.1,-6.1
2023/01/25 06:10:00,76.9,-6.1
2023/01/25 06:20:00,76.6,-6.1
2023/01/25 06:30:00,76.5,-6.0
2023/01/25 06:40:00,76.5,-6.0
2023/01/25 06:50:00,77.1,-5.9
2023/01/25 07:00:00,77.2,-5.8
2023/01/25 07:10:00,77.2,-5.7
2023/01/25 07:20:00,77.1,-5.5
2023/01/25 07:30:00,77.2,-5.4
2023/01/25 07:40:00,77.8,-5.7
2023/01/25 07:50:00,77.7,-5.5
2023/01/25 08:00:00,77.8,-5.5
2023/01/25 08:10:00,78.3,-5.1
2023/01/25 08:20:00,78.3,-5.0
2023/01/25 08:30:00,78.4,-5.0
2023/01/25 08:40:00,78.6,-4.7
2023/01/25 08:50:00,78.5,-4.6
2023/01/25 09:00:00,78.9,-4.7
2023/01/25 09:10:00,79.3,-4.4
2023/01/25 09:20:00,79.3,-3.5
2023/01/25 09:30:00,79.3,-3.8
2023/01/25 09:40:00,79.4,-3.7
2023/01/25 09:50:00,79.3,-2.7
2023/01/25 10:00:00,79.4,-3.2
2023/01/25 10:10:00,79.8,-2.8
2023/01/25 10:20:00,79.9,-2.8
2023/01/25 10:30:00,80.1,-3.6
2023/01/25 10:40:00,79.9,-3.4
2023/01/25 10:50:00,79.9,-3.8
2023/01/25 11:00:00,79.8,-2.9
2023/01/25 11:10:00,79.7,-2.9
2023/01/25 11:20:00,79.6,-1.8
2023/01/25 11:30:00,79.5,-1.4
2023/01/25 11:40:00,79.4,-1.9
2023/01/25 11:50:00,79.3,-2.0
2023/01/25 12:00:00,79.3,-2.8
2023/01/25 12:10:00,80.2,-3.2
2023/01/25 12:20:00,80.7,-2.9
2023/01/25 12:30:00,80.8,-2.5
2023/01/25 12:40:00,81.3,-2.8
2023/01/25 12:50:00,81.2,-2.6
2023/01/25 13:00:00,81.2,-3.1
2023/01/25 13:10:00,81.4,-1.4
2023/01/25 13:20:00,81.6,-1.0
2023/01/25 13:30:00,81.6,-1.9
2023/01/25 13:40:00,82.2,-2.5
2023/01/25 13:50:00,83.1,-2.9
2023/01/25 14:00:00,83.5,-2.2
2023/01/25 14:10:00,83.6,-1.3
2023/01/25 14:20:00,83.9,-2.4
2023/01/25 14:30:00,84.2,-2.7
2023/01/25 14:40:00,84.1,-1.4
2023/01/25 14:50:00,84.1,-1.5
2023/01/25 15:00:00,84.0,-2.5
2023/01/25 15:10:00,84.4,-2.2
2023/01/25 15:20:00,84.4,-1.0
2023/01/25 15:30:00,84.3,-1.6
2023/01/25 15:40:00,84.2,-2.4
2023/01/25 15:50:00,84.4,-2.6
2023/01/25 16:00:00,85.3,-2.9
2023/01/25 16:10:00,86.3,-2.6
2023/01/25 16:20:00,86.3,-2.3
2023/01/25 16:30:00,86.2,-2.1
2023/01/25 16:40:00,86.0,-2.8
2023/01/25 16:50:00,86.7,-2.6
2023/01/25 17:00:00,87.1,-2.8
2023/01/25 17:10:00,87.2,-3.3
2023/01/25 17:20:00,88.0,-3.1
2023/01/25 17:30:00,88.1,-3.2
2023/01/25 17:40:00,88.3,-3.5
2023/01/25 17:50:00,88.3,-3.6
2023/01/25 18:00:00,88.4,-3.4
2023/01/25 18:10:00,88.6,-3.5
2023/01/25 18:20:00,88.8,-3.7
2023/01/25 18:30:00,89.3,-3.6
2023/01/25 18:40:00,89.2,-3.8
2023/01/25 18:50:00,89.2,-3.7
2023/01/25 19:00:00,89.7,-3.8
2023/01/25 19:10:00,90.4,-3.8
2023/01/25 19:20:00,91.0,-3.7
2023/01/25 19:30:00,91.2,-3.7
2023/01/25 19:40:00,91.7,-3.7
2023/01/25 19:50:00,92.9,-3.8
2023/01/25 20:00:00,93.5,-3.2
2023/01/25 20:10:00,93.8,-3.8
2023/01/25 20:20:00,94.1,-3.8
2023/01/25 20:30:00,94.0,-3.9
2023/01/25 20:40:00,93.7,-3.8
2023/01/25 20:50:00,93.5,-3.3
2023/01/25 21:00:00,93.9,-3.9
2023/01/25 21:10:00,94.1,-3.9
2023/01/25 21:20:00,94.3,-3.3
2023/01/25 21:30:00,94.2,-3.9
2023/01/25 21:40:00,94.3,-3.9
2023/01/25 21:50:00,95.5,-3.8
2023/01/25 22:00:00,95.6,-3.8
2023/01/25 22:10:00,95.7,-3.6
2023/01/25 22:20:00,95.8,-4.2
2023/01/25 22:30:00,95.8,-4.6
2023/01/25 22:40:00,95.6,-5.1
2023/01/25 22:50:00,95.5,-5.4
2023/01/25 23:00:00,95.5,-5.7
2023/01/25 23:10:00,95.4,-5.9
2023/01/25 23:20:00,95.1,-6.5
2023/01/25 23:30:00,95.0,-6.8
2023/01/25 23:40:00,94.8,-7.2
2023/01/25 23:50:00,94.7,-7.5
